Location: Betpouey
(42.8833°N, 0.0333°E)
Time: 07:41:50
(UTC+00:00)

CZ-4 R/B - Pass Details

Date: 01 December 2020
Orbit: 533 x 597 km, 97.7° (Epoch: 17 January)

Event Time Altitude Azimuth Distance (km) Brightness Sun altitude
Rises 17:35:03 0° 131° (SE) 2,718 4.6 -12.3°
Enters shadow 17:35:16 - 130° (SE) 2,635 4.5 -12.3°
Exits shadow 17:41:16 19° 50° (NE) 1,366 2.8 -13.4°
Drops below altitude 10° 17:43:31 10° 18° (NNE) 1,881 3.7 -13.7°
Sets 17:46:06 0° 2° (N) 2,797 4.7 -14.2°
